Location: Caltech
(34.1382°N, 118.1253°W)
Time: 03:07:58
(UTC-07:00)

ADEOS II - Visible Passes

Search period start: 22 April 2018 00:00
Search period end: 02 May 2018 00:00
Orbit: 799 x 802 km, 98.4° (Epoch: 21 April)

Date Brightness Start Highest point End Pass type
(mag) Time Alt. Az. Time Alt. Az. Time Alt. Az.
22 Apr 3.3 03:27:25 10° NNE 03:32:13 36° E 03:33:18 32° ESE visible
22 Apr 3.3 05:07:36 10° NNW 05:11:41 24° WNW 05:14:15 17° WSW visible
23 Apr 4.1 03:01:53 10° NE 03:05:37 19° E 03:06:37 18° ESE visible
23 Apr 2.6 04:40:31 10° N 04:45:26 42° WNW 04:47:34 28° WSW visible
24 Apr 2.0 04:13:50 10° N 04:19:05 77° WNW 04:20:53 42° SSW visible
25 Apr 2.5 03:47:27 10° NNE 03:52:38 58° E 03:54:12 41° SSE visible
25 Apr 3.8 05:28:55 10° NNW 05:31:48 15° WNW 05:34:41 10° W visible
26 Apr 3.5 03:21:28 10° NE 03:26:06 31° E 03:27:31 27° SE visible
26 Apr 3.2 05:01:19 10° NNW 05:05:38 27° WNW 05:08:28 17° WSW visible
27 Apr 4.3 02:56:07 10° NE 02:59:28 17° E 03:00:49 16° ESE visible
27 Apr 2.4 04:34:20 10° N 04:39:22 48° WNW 04:41:46 28° SW visible
28 Apr 2.0 04:07:43 10° NNE 04:12:59 87° WNW 04:15:04 38° SSW visible
29 Apr 2.7 03:41:25 10° NNE 03:46:31 50° E 03:48:23 35° SSE visible
29 Apr 3.7 05:22:28 10° NNW 05:25:46 17° WNW 05:29:04 10° WSW visible
30 Apr 3.7 03:15:31 10° NE 03:19:58 27° E 03:21:41 23° SE visible
30 Apr 3.0 04:55:03 10° N 04:59:35 30° WNW 05:02:38 17° WSW visible
01 May 4.4 02:50:26 10° ENE 02:53:18 15° E 02:54:59 13° ESE visible
01 May 2.2 04:28:09 10° N 04:33:17 54° WNW 04:35:56 27° SW visible
